Simultaneous Nadir Overpasses (SNOs) Predictions

Prediction of SNOs between AQUA and METOP-C Satellite Orbit:

Table of predicted SNOs for the next 14.0 days since TLE Epoch: 10/23/2021
Index Date (AQUA) Time (AQUA) Lat,Lon (AQUA) SZA (AQUA ) Date (METOP-C) Time (METOP-C) Lat,Lon (METOP-C) SZA (METOP-C ) Distance(km) Time Diff (sec)
1 10/23/2021 05:12:46 -73.75, -83.82 94.86 10/23/2021 05:12:13 -73.75, -83.75 94.86 2.03 33
2 10/23/2021 06:02:14 73.77, 83.77 85.18 10/23/2021 06:02:51 73.79, 83.67 85.20 3.52 37
3 10/26/2021 00:47:04 -73.73, -17.34 93.91 10/26/2021 00:46:37 -73.75, -17.35 93.89 2.18 27
4 10/26/2021 01:36:33 73.80, 150.13 86.18 10/26/2021 01:37:14 73.83, 150.18 86.21 3.33 41
5 10/28/2021 20:21:23 -73.76, 49.01 92.92 10/28/2021 20:21:01 -73.74, 49.03 92.95 3.10 22
6 10/28/2021 21:10:51 73.79,-143.41 87.12 10/28/2021 21:11:38 73.82,-143.43 87.15 3.46 47
7 10/31/2021 15:06:01 73.06, -50.73 87.28 10/31/2021 15:04:55 73.03, -53.48 87.27 89.28 66
8 10/31/2021 15:55:40 -73.76, 115.45 92.01 10/31/2021 15:55:23 -73.78, 115.53 91.99 3.14 17
9 10/31/2021 16:45:09 73.84, -77.09 88.09 10/31/2021 16:46:01 73.81, -77.05 88.06 3.42 52
10 11/03/2021 10:40:23 73.28, 15.26 88.38 11/03/2021 10:39:15 73.22, 13.34 88.34 62.05 68
11 11/03/2021 11:29:58 -73.76,-178.13 91.12 11/03/2021 11:29:47 -73.76,-178.10 91.12 1.09 11
12 11/03/2021 12:19:26 73.79, -10.56 88.93 11/03/2021 12:20:25 73.80, -10.67 88.93 3.61 59



Historial Predications of SNOs between AQUA and METOP-C
